THORAD DELTA 1 DEB, 9795

Orbit data source: Space-Track

THORAD DELTA 1 DEB, 9795 is space debris in SSO originally from a launch on Fri, 15 Nov 1974 UTC launched from the Air Force Western Test Range (AFWTR). Debris objects in space refer to the collection of defunct objects orbiting the Earth. Examples of debris include non-operational satellites, rocket bodies, and fragments generated from explosions, collisions, or faulty payload assembly.

Loading next visibility...
Identifier
9795, 1974-089EA
Orbit
SSO
Country
Flag of USUS
Related business
Manufacturer
Unknown
Mission
Spacecraft
Bus & Motor
Unknown
Mass
Unknown
Launch date (UTC)
1974-11-15 (51 years ago)
Launch vehicle
Unknown
Launch site
Air Force Western Test Range (AFWTR)
Object type
Payload
Rocket body
Debris
Shape & HBR
Unknown shape, 0.1 m
Radar Cross Section
Small (<0.1 m²)

Expand to show TLE details & history
Last TLE update: 13 hours ago

TLE from 13 hours ago
0 THORAD DELTA 1 DEB
1  9795U 74089EA  26062.89293270  .00000281  00000-0  15179-2 0  9990
2  9795 102.0225  41.6472 0297169  79.4169 311.3355 12.63438144359293
Epoch: 2026-03-03T21:25Z
TLE epoch observation values (Epoch: 2026-03-03T21:25:49.385Z)
Latitude
27.5035°
Longitude
-87.80784°
Altitude
1,262.998 km
Speed
7.295 km/s
True Right ascension
02h 21m 15s
True Declination
27° 22' 20"
Sunlit
Object was in daylight at epoch
Visualization orbit readout
Latitude
Unknown
Longitude
Unknown
Altitude
Unknown
Speed
Unknown
Apparent Right ascension
Unknown
Apparent Declination
Unknown
Sunlit
N/A
Visualization observer readout
Local Sidereal Time
14:36:15
Azimuth
Unknown
Elevation
Unknown
Doppler factor
Unknown
Orbital elements
Apogee altitude
1,637.658 km
Perigee altitude
1,174.998 km
Semi-major axis
7,784.465 km
Eccentricity
0.02972
Inclination
102.0225°
RAAN
41.6472°
Arg. of periapsis
79.4169°
True anomaly
308.71528°
Mean anomaly
311.3355°
Eccentric anomaly
310.0318°
Mean motion
3.16009 °/min
Orbital period
113.92 mins
BSTAR
0.0015179
Loading maneuver chart data...
Computing Atmospheric mass density...

Documentation

Showing up to 5 results
|